LZ2SLL-13 Weather Reports


time (UTC)temp
F
wind
direction
speed
knots
gust
knots
rain 1hr
in
rain 24hr
in
rain mn
in
humidity
%
barometer
mb
20260507212132 53 173 0.9 0.9 0.00 0.00 0.00 96
20260507211631 53 167 0.9 0.9 0.00 0.00 0.00 96
20260507211130 53 139 0.0 0.0 0.00 0.00 0.00 96
20260507210630 53 159 0.0 0.9 0.00 0.00 0.00 96
20260507210129 53 128 0.9 0.9 0.00 0.00 0.00 94
20260507205628 53 128 0.9 0.9 0.00 0.00 0.00 94
20260507205122 53 128 0.9 0.9 0.00 0.00 0.00 94
20260507204622 53 128 0.9 0.9 0.00 0.00 0.00 94
20260507204121 53 128 0.9 0.9 0.00 0.00 0.00 94
20260507203620 53 128 0.9 0.9 0.00 0.00 0.00 94
20260507203120 53 128 0.9 0.9 0.00 0.00 0.00 94
20260507202619 53 128 0.9 0.9 0.00 0.00 0.00 94
20260507202118 53 128 0.9 0.9 0.00 0.00 0.00 94
20260507201618 53 128 0.9 0.9 0.00 0.00 0.00 94
20260507201117 53 128 0.9 0.9 0.00 0.00 0.00 94
20260507200616 53 128 0.9 0.9 0.00 0.00 0.00 94
20260507200116 53 128 0.9 0.9 0.00 0.00 0.00 94
20260507195615 53 128 0.9 0.9 0.00 0.00 0.00 94
20260507195114 53 128 0.9 0.9 0.00 0.00 0.00 94
20260507194613 53 128 0.9 0.9 0.00 0.00 0.00 94
20260507194113 53 128 0.9 0.9 0.00 0.00 0.00 94
20260507193612 53 128 0.9 0.9 0.00 0.00 0.00 94
20260507193111 53 128 0.9 0.9 0.00 0.00 0.00 94
20260507192610 53 128 0.9 0.9 0.00 0.00 0.00 94
20260507192110 53 128 0.9 0.9 0.00 0.00 0.00 94
20260507191609 53 128 0.9 0.9 0.00 0.00 0.00 94
20260507191108 53 85 0.0 0.9 0.00 0.00 0.00 94
20260507190607 53 148 0.9 1.7 0.00 0.00 0.00 94
20260507190107 53 103 0.0 0.0 0.00 0.00 0.00 93
20260507185606 53 136 0.0 0.0 0.00 0.00 0.00 93
20260507185105 53 127 0.0 0.9 0.00 0.00 0.00 93
20260507184605 53 91 0.0 0.0 0.00 0.00 0.00 92
20260507184104 53 143 0.0 0.9 0.00 0.00 0.00 92
20260507183603 53 44 0.0 0.9 0.00 0.00 0.00 92
20260507183103 53 34 0.9 0.9 0.00 0.00 0.00 92
20260507182602 53 77 0.9 0.9 0.00 0.00 0.00 92
20260507182101 53 113 0.0 0.0 0.00 0.00 0.00 92
20260507181600 53 99 0.0 0.0 0.00 0.00 0.00 93
20260507181100 53 81 0.0 0.9 0.00 0.00 0.00 93
20260507180559 53 153 0.9 0.9 0.00 0.00 0.00 92
20260507180058 53 90 0.0 0.0 0.00 0.00 0.00 92
20260507175557 53 121 0.0 0.9 0.00 0.00 0.00 92
20260507175057 53 112 0.0 0.0 0.00 0.00 0.00 91
20260507174556 53 105 0.0 0.0 0.00 0.00 0.00 91
20260507174055 53 108 0.0 0.0 0.00 0.00 0.00 91
20260507173555 53 133 0.9 0.9 0.00 0.00 0.00 91
20260507173049 53 135 0.9 0.0 0.00 0.00 0.00 91
20260507172548 53 103 0.0 0.0 0.00 0.00 0.00 90
20260507172047 53 134 0.9 0.9 0.00 0.00 0.00 89
20260507171546 53 119 0.0 0.9 0.00 0.00 0.00 89
20260507171046 53 106 0.9 1.7 0.00 0.00 0.00 88
20260507170545 54 136 0.0 1.7 0.00 0.00 0.00 87
20260507165543 54 136 0.0 1.7 0.00 0.00 0.00 87
20260507165043 54 177 0.9 1.7 0.00 0.00 0.00 87
20260507164542 54 156 0.9 0.9 0.00 0.00 0.00 86
20260507164041 54 129 0.0 0.0 0.00 0.00 0.00 87
20260507163541 55 134 0.9 0.9 0.00 0.00 0.00 86
20260507163040 55 158 0.9 1.7 0.00 0.00 0.00 85
20260507162539 55 148 1.7 1.7 0.00 0.00 0.00 85
20260507162038 55 152 0.9 1.7 0.00 0.00 0.00 85
20260507161539 55 171 0.9 0.9 0.00 0.00 0.00 84
20260507161037 55 170 3.5 5.2 0.00 0.00 0.00 84
20260507160536 56 198 1.7 1.7 0.00 0.00 0.00 83
20260507160036 56 160 1.7 2.6 0.00 0.00 0.00 84
20260507155535 56 108 3.5 4.3 0.00 0.00 0.00 82
20260507155029 56 152 1.7 2.6 0.00 0.00 0.00 82
20260507154529 57 182 0.9 1.7 0.00 0.00 0.00 82
20260507154028 56 91 2.6 3.5 0.00 0.00 0.00 81
20260507153527 57 106 2.6 4.3 0.00 0.00 0.00 81
20260507153026 57 101 1.7 1.7 0.00 0.00 0.00 80
20260507152525 58 199 1.7 2.6 0.00 0.00 0.00 78
20260507152024 58 49 1.7 2.6 0.00 0.00 0.00 80
20260507151523 57 144 2.6 3.5 0.00 0.00 0.00 81
20260507151023 57 148 1.7 1.7 0.00 0.00 0.00 80
20260507150522 57 148 1.7 1.7 0.00 0.00 0.00 80
20260507150022 58 183 3.5 4.3 0.00 0.00 0.00 77
20260507145521 58 183 3.5 4.3 0.00 0.00 0.00 77
20260507145020 58 183 3.5 4.3 0.00 0.00 0.00 77
20260507144519 58 183 3.5 4.3 0.00 0.00 0.00 77
20260507144019 60 152 1.7 1.7 0.00 0.00 0.00 74
20260507143518 60 129 1.7 2.6 0.00 0.00 0.00 73
20260507143017 60 159 0.9 0.9 0.00 0.00 0.00 73
20260507142516 59 111 0.9 2.6 0.00 0.00 0.00 76
20260507142016 60 215 2.6 4.3 0.00 0.00 0.00 74
20260507141515 60 215 2.6 4.3 0.00 0.00 0.00 74
20260507141014 60 215 2.6 4.3 0.00 0.00 0.00 74
20260507140514 60 124 2.6 4.3 0.00 0.00 0.00 71
20260507140013 61 164 0.9 1.7 0.00 0.00 0.00 70
20260507135512 61 161 1.7 3.5 0.00 0.00 0.00 70
20260507135011 60 161 1.7 1.7 0.00 0.00 0.00 72
20260507134510 60 161 1.7 1.7 0.00 0.00 0.00 72
20260507134010 60 161 1.7 1.7 0.00 0.00 0.00 72
20260507133509 59 145 3.5 5.2 0.00 0.00 0.00 73
20260507133008 60 173 0.9 3.5 0.00 0.00 0.00 72
20260507132507 61 178 0.9 2.6 0.00 0.00 0.00 70
20260507132006 61 201 1.7 1.7 0.00 0.00 0.00 71
20260507131506 60 180 4.3 4.3 0.00 0.00 0.00 71
20260507131005 62 185 0.9 1.7 0.00 0.00 0.00 68
20260507130504 61 174 4.3 5.2 0.00 0.00 0.00 70
20260507130004 61 224 3.5 7.0 0.00 0.00 0.00 69
20260507125503 61 122 1.7 2.6 0.00 0.00 0.00 69
20260507125000 61 122 1.7 2.6 0.00 0.00 0.00 69
20260507124459 61 122 1.7 2.6 0.00 0.00 0.00 69
20260507123958 61 122 1.7 2.6 0.00 0.00 0.00 69
20260507123457 61 185 2.6 3.5 0.00 0.00 0.00 69
20260507122956 61 124 3.5 4.3 0.00 0.00 0.00 71
20260507122456 60 100 3.5 4.3 0.00 0.00 0.00 72
20260507121955 61 179 1.7 3.5 0.00 0.00 0.00 69
20260507121454 61 118 1.7 2.6 0.00 0.00 0.00 71
20260507120953 61 118 1.7 2.6 0.00 0.00 0.00 71
20260507120453 60 104 3.5 3.5 0.00 0.00 0.00 69
20260507115952 62 149 2.6 2.6 0.00 0.00 0.00 68
20260507115451 61 184 1.7 3.5 0.00 0.00 0.00 69
20260507114950 61 169 3.5 4.3 0.00 0.00 0.00 69
20260507114450 60 207 4.3 7.0 0.00 0.00 0.00 71
20260507113949 60 207 4.3 7.0 0.00 0.00 0.00 71
20260507113448 60 148 2.6 4.3 0.00 0.00 0.00 70
20260507112948 60 153 1.7 2.6 0.00 0.00 0.00 72
20260507112447 62 161 3.5 3.5 0.00 0.00 0.00 67
20260507111946 61 89 2.6 5.2 0.00 0.00 0.00 70
20260507111445 59 194 3.5 4.3 0.00 0.00 0.00 73
20260507110945 59 170 2.6 4.3 0.00 0.00 0.00 73
20260507110444 58 175 2.6 4.3 0.00 0.00 0.00 76
20260507105943 58 131 1.7 2.6 0.00 0.00 0.00 76
20260507105442 58 154 0.9 1.7 0.00 0.00 0.00 75
20260507104942 57 154 1.7 3.5 0.00 0.00 0.00 77
20260507104441 59 166 3.5 4.3 0.00 0.00 0.00 72
20260507103940 59 188 0.9 0.9 0.00 0.00 0.00 71
20260507103439 60 152 2.6 2.6 0.00 0.00 0.00 71
20260507102939 60 175 2.6 3.5 0.00 0.00 0.00 69
20260507102438 60 175 2.6 3.5 0.00 0.00 0.00 69
20260507101937 60 175 2.6 3.5 0.00 0.00 0.00 69
20260507101437 60 175 2.6 3.5 0.00 0.00 0.00 69
20260507100936 60 175 2.6 3.5 0.00 0.00 0.00 69
20260507100435 60 175 2.6 3.5 0.00 0.00 0.00 69
20260507095935 60 175 2.6 3.5 0.00 0.00 0.00 69
20260507095434 60 175 2.6 3.5 0.00 0.00 0.00 69
20260507094933 60 175 2.6 3.5 0.00 0.00 0.00 69
20260507094432 60 175 2.6 3.5 0.00 0.00 0.00 69
20260507093932 60 175 2.6 3.5 0.00 0.00 0.00 69
20260507093431 60 175 2.6 3.5 0.00 0.00 0.00 69
20260507092930 60 175 2.6 3.5 0.00 0.00 0.00 69
20260507092430 55 198 3.5 4.3 0.00 0.00 0.00 81
20260507091929 55 198 3.5 4.3 0.00 0.00 0.00 81
20260507091428 55 198 3.5 4.3 0.00 0.00 0.00 81
20260507090927 55 198 3.5 4.3 0.00 0.00 0.00 81
20260507090426 55 198 3.5 4.3 0.00 0.00 0.00 81
20260507085925 55 198 3.5 4.3 0.00 0.00 0.00 81
20260507085425 55 198 3.5 4.3 0.00 0.00 0.00 81
20260507084924 55 198 3.5 4.3 0.00 0.00 0.00 81
20260507084423 55 198 3.5 4.3 0.00 0.00 0.00 81
20260507083922 55 198 3.5 4.3 0.00 0.00 0.00 81
20260507083422 55 198 3.5 4.3 0.00 0.00 0.00 81
20260507082921 55 198 3.5 4.3 0.00 0.00 0.00 81
20260507082420 55 198 3.5 4.3 0.00 0.00 0.00 81
20260507081920 55 198 3.5 4.3 0.00 0.00 0.00 81
20260507081419 55 198 3.5 4.3 0.00 0.00 0.00 81
20260507080918 55 198 3.5 4.3 0.00 0.00 0.00 81
20260507080417 55 198 3.5 4.3 0.00 0.00 0.00 81
20260507075917 55 198 3.5 4.3 0.00 0.00 0.00 81
20260507075416 55 198 3.5 4.3 0.00 0.00 0.00 81
20260507074915 55 198 3.5 4.3 0.00 0.00 0.00 81
20260507074415 55 198 3.5 4.3 0.00 0.00 0.00 81
20260507073914 55 198 3.5 4.3 0.00 0.00 0.00 81
20260507073414 55 198 3.5 4.3 0.00 0.00 0.00 81
20260507072913 55 198 3.5 4.3 0.00 0.00 0.00 81
20260507072412 55 198 3.5 4.3 0.00 0.00 0.00 81
20260507071911 55 198 3.5 4.3 0.00 0.00 0.00 81
20260507071411 55 198 3.5 4.3 0.00 0.00 0.00 81
20260507070910 55 198 3.5 4.3 0.00 0.00 0.00 81
20260507070409 55 198 3.5 4.3 0.00 0.00 0.00 81
20260507065909 55 198 3.5 4.3 0.00 0.00 0.00 81
20260507065408 55 198 3.5 4.3 0.00 0.00 0.00 81
20260507064907 55 198 3.5 4.3 0.00 0.00 0.00 81
20260507064406 55 198 3.5 4.3 0.00 0.00 0.00 81
20260507063906 55 198 3.5 4.3 0.00 0.00 0.00 81
20260507063405 55 198 3.5 4.3 0.00 0.00 0.00 81
20260507062904 55 198 3.5 4.3 0.00 0.00 0.00 81
20260507062404 55 198 3.5 4.3 0.00 0.00 0.00 81
20260507061903 55 198 3.5 4.3 0.00 0.00 0.00 81
20260507061402 55 198 3.5 4.3 0.00 0.00 0.00 81
20260507060902 55 198 3.5 4.3 0.00 0.00 0.00 81
20260507060401 55 198 3.5 4.3 0.00 0.00 0.00 81
20260507055900 55 163 3.5 4.3 0.00 0.00 0.00 82
20260507055400 55 163 3.5 4.3 0.00 0.00 0.00 82
20260507054859 52 192 2.6 4.3 0.00 0.00 0.00 86
20260507054358 52 192 2.6 4.3 0.00 0.00 0.00 86
20260507053858 52 192 2.6 4.3 0.00 0.00 0.00 86
20260507053357 52 192 2.6 4.3 0.00 0.00 0.00 86
20260507052856 52 192 2.6 4.3 0.00 0.00 0.00 86
20260507052355 52 192 2.6 4.3 0.00 0.00 0.00 86
20260507051855 52 192 2.6 4.3 0.00 0.00 0.00 86
20260507051354 52 192 2.6 4.3 0.00 0.00 0.00 86
20260507050853 52 192 2.6 4.3 0.00 0.00 0.00 86
20260507050353 52 192 2.6 4.3 0.00 0.00 0.00 86
20260507045852 52 192 2.6 4.3 0.00 0.00 0.00 86
20260507045351 52 192 2.6 4.3 0.00 0.00 0.00 86
20260507044851 52 192 2.6 4.3 0.00 0.00 0.00 86
20260507044350 52 192 2.6 4.3 0.00 0.00 0.00 86
20260507043850 52 192 2.6 4.3 0.00 0.00 0.00 86
20260507043349 52 192 2.6 4.3 0.00 0.00 0.00 86
20260507042848 52 192 2.6 4.3 0.00 0.00 0.00 86
20260507042348 52 170 0.0 0.9 0.00 0.00 0.00 87
20260507041847 52 170 0.0 0.9 0.00 0.00 0.00 87
20260507041346 52 170 0.0 0.9 0.00 0.00 0.00 87
20260507040845 52 170 0.0 0.9 0.00 0.00 0.00 87
20260507040345 52 170 0.0 0.9 0.00 0.00 0.00 87
20260507035844 52 170 0.0 0.9 0.00 0.00 0.00 87
20260507035343 52 170 0.0 0.9 0.00 0.00 0.00 87
20260507034843 52 170 0.0 0.9 0.00 0.00 0.00 87
20260507034342 51 138 2.6 1.7 0.00 0.00 0.00 86
20260507033841 51 152 1.7 2.6 0.00 0.00 0.00 86
20260507032840 51 148 0.9 1.7 0.00 0.00 0.00 87
20260507032339 51 137 1.7 2.6 0.00 0.00 0.00 87
20260507031839 51 89 0.9 1.7 0.00 0.00 0.00 87
20260507030837 51 181 0.9 0.9 0.00 0.00 0.00 88
20260507030337 51 181 1.7 1.7 0.00 0.00 0.00 88
20260507025836 51 147 0.9 0.0 0.00 0.00 0.00 88
20260507025335 51 192 1.7 1.7 0.00 0.00 0.00 88
20260507024835 51 192 1.7 1.7 0.00 0.00 0.00 88
20260507024334 51 184 2.6 4.3 0.00 0.00 0.00 88
20260507023833 51 154 3.5 5.2 0.00 0.00 0.00 87
20260507023333 51 216 1.7 2.6 0.00 0.00 0.00 87
20260507022832 51 198 3.5 4.3 0.00 0.00 0.00 88
20260507022331 51 170 1.7 2.6 0.00 0.00 0.00 88
20260507021831 51 180 0.9 3.5 0.00 0.00 0.00 89
20260507021330 52 175 0.9 1.7 0.00 0.00 0.00 88
20260507020829 51 176 0.9 1.7 0.00 0.00 0.00 88
20260507020329 51 165 0.9 1.7 0.00 0.00 0.00 87
20260507015828 51 170 0.9 1.7 0.00 0.00 0.00 88
20260507015327 51 155 3.5 4.3 0.00 0.00 0.00 88
20260507014827 52 144 2.6 3.5 0.00 0.00 0.00 89
20260507014326 51 137 0.9 0.9 0.00 0.00 0.00 89
20260507013825 51 141 0.9 2.6 0.00 0.00 0.00 90
20260507013325 51 182 1.7 1.7 0.00 0.00 0.00 90
20260507012824 51 176 1.7 2.6 0.00 0.00 0.00 89
20260507012323 51 187 1.7 2.6 0.00 0.00 0.00 89
20260507011823 51 169 1.7 2.6 0.00 0.00 0.00 89
20260507011322 51 132 0.9 0.9 0.00 0.00 0.00 89
20260507010821 51 156 0.9 2.6 0.00 0.00 0.00 89
20260507010321 51 69 0.0 0.9 0.00 0.00 0.00 89
20260507005820 51 121 1.7 1.7 0.00 0.00 0.00 89
20260507005319 52 89 0.0 0.9 0.00 0.00 0.00 89
20260507004819 51 135 0.0 0.9 0.00 0.00 0.00 88
20260507004318 51 118 0.9 1.7 0.00 0.00 0.00 88
20260507003817 51 95 1.7 1.7 0.00 0.00 0.00 88
20260507003317 52 131 0.9 1.7 0.00 0.00 0.00 88
20260507002816 52 174 0.9 1.7 0.00 0.00 0.00 88
20260507002315 52 111 0.9 2.6 0.00 0.00 0.00 88
20260507001815 52 140 1.7 2.6 0.00 0.00 0.00 88
20260507001314 52 163 0.9 1.7 0.00 0.00 0.00 88
20260507000813 52 198 0.9 1.7 0.00 0.00 0.00 89
20260507000314 52 180 0.0 0.0 0.00 0.00 0.00 90
20260506235812 52 139 0.9 1.7 0.00 0.00 0.00 90
20260506235312 52 183 1.7 2.6 0.00 0.00 0.00 89
20260506234310 52 203 2.6 2.6 0.00 0.00 0.00 90
20260506233809 52 152 0.9 0.9 0.00 0.00 0.00 90
20260506233309 51 177 0.9 1.7 0.00 0.00 0.00 89
20260506232808 51 162 0.9 1.7 0.00 0.00 0.00 89
20260506232307 51 156 0.9 2.6 0.00 0.00 0.00 89
20260506231806 52 132 0.0 0.0 0.00 0.00 0.00 89
20260506231306 52 112 0.0 0.0 0.00 0.00 0.00 89
20260506230805 52 178 0.9 1.7 0.00 0.00 0.00 89
20260506230304 52 158 3.5 2.6 0.00 0.00 0.00 89
20260506225803 52 158 0.9 1.7 0.00 0.00 0.00 90
20260506225305 52 135 1.7 1.7 0.00 0.00 0.00 89
20260506224802 52 149 0.9 0.9 0.00 0.00 0.00 91
20260506224301 52 185 1.7 2.6 0.00 0.00 0.00 90
20260506223800 0 0.0 0.0 0.00 0.00 0.00
20260506223300 52 144 0.9 0.9 0.00 0.00 0.00 91
20260506222759 52 140 2.6 3.5 0.00 0.00 0.00 91
20260506222258 52 157 0.9 1.7 0.00 0.00 0.00 90
20260506221758 52 133 1.7 2.6 0.00 0.00 0.00 90
20260506221257 52 109 0.0 0.0 0.00 0.00 0.00 90
20260506220756 52 132 0.9 0.9 0.00 0.00 0.00 89
20260506220255 52 201 1.7 1.7 0.00 0.00 0.00 89
20260506215755 52 138 0.0 0.9 0.00 0.00 0.00 89
20260506215254 52 119 0.9 0.9 0.00 0.00 0.00 89
20260506214753 52 166 1.7 1.7 0.00 0.00 0.00 89
20260506214253 52 155 1.7 1.7 0.00 0.00 0.00 90
20260506213752 52 150 0.9 1.7 0.00 0.00 0.00 90
20260506213251 52 165 0.9 1.7 0.00 0.00 0.00 89
20260506212751 52 148 0.9 0.9 0.00 0.00 0.00 90